Location: Alladorf
(49.9620°N, 11.3790°E)
Time: 20:39:32
(UTC+00:00)

CENTAUR R/B - Pass Details

Date: 29 November 2020
Orbit: 750 x 1438 km, 63.4° (Epoch: 11 January)

Event Time Altitude Azimuth Distance (km) Brightness Sun altitude
Exits shadow 04:01:37 44° 245° (WSW) 1,843 3.5 -26.0°
Maximum altitude 04:01:47 44° 242° (WSW) 1,844 3.5 -26.0°
Drops below altitude 10° 04:09:56 10° 175° (S) 3,536 5.5 -24.7°
Sets 04:13:04 0° 169° (S) 4,514 6.2 -24.2°
